When you browse on this site, cookies collect data to enhance your experience and personalize the content and advertising you see.
Visit our Privacy Policy to learn more. By continuing to use the site, you agree to this use of cookies and data.
  • In Portugal
  • List of Countries
  • For 7 days
  • Water Temperature
  • Satellite Maps
  • Weather Map
  • Weather Widgets
  • user-avatar
    Login

    Hourly Weather Kapan

    Today, 17 December, Monday

    Time Temperature Precipitation Wind Pressure Humidity
    00:00 +6°C° 0 mm 1 mps 688 mmHg 60%
    01:00 +5°C° 0 mm 1 mps 688 mmHg 61%
    02:00 +5°C° 0 mm 1 mps 688 mmHg 62%
    03:00 +5°C° 0 mm 1 mps 687 mmHg 63%
    04:00 +5°C° 0 mm 1 mps 687 mmHg 65%
    05:00 +5°C° 0 mm 1 mps 687 mmHg 66%
    06:00 +5°C° 0 mm 1 mps 687 mmHg 67%
    07:00 +5°C° 0 mm 1 mps 687 mmHg 66%
    08:00 +6°C° 0 mm 1 mps 687 mmHg 64%
    09:00 +7°C° 0 mm 1 mps 687 mmHg 62%
    10:00 +8°C° 0 mm 1 mps 687 mmHg 61%
    11:00 +7°C° 0 mm 2 mps 687 mmHg 61%
    12:00 +8°C° 0 mm 2 mps 686 mmHg 60%
    13:00 +8°C° 0 mm 2 mps 686 mmHg 63%
    14:00 +7°C° 0 mm 2 mps 686 mmHg 65%
    15:00 +7°C° 0 mm 2 mps 686 mmHg 68%
    16:00 +6°C° 0.1 mm 2 mps 686 mmHg 72%
    17:00 +6°C° 0.1 mm 2 mps 686 mmHg 77%
    18:00 +5°C° 0.1 mm 2 mps 686 mmHg 81%
    19:00 +5°C° 0.1 mm 2 mps 686 mmHg 82%
    20:00 +5°C° 0.1 mm 1 mps 685 mmHg 84%
    21:00 +5°C° 0.1 mm 1 mps 685 mmHg 85%
    22:00 +5°C° 0.3 mm 1 mps 685 mmHg 85%
    23:00 +5°C° 0.3 mm 1 mps 685 mmHg 85%

    Tomorrow, 18 December, Tuesday

    Time Temperature Precipitation Wind Pressure Humidity
    00:00 +5°C° 0.3 mm 1 mps 685 mmHg 85%
    01:00 +5°C° 0.5 mm 1 mps 685 mmHg 86%
    02:00 +5°C° 0.5 mm 1 mps 685 mmHg 86%
    03:00 +5°C° 0.5 mm 1 mps 685 mmHg 86%
    04:00 +5°C° 0.5 mm 1 mps 685 mmHg 87%
    05:00 +4°C° 0.5 mm 0 mps 685 mmHg 87%
    06:00 +4°C° 0.5 mm 0 mps 685 mmHg 87%
    07:00 +5°C° 0.3 mm 1 mps 685 mmHg 85%
    08:00 +6°C° 0.3 mm 1 mps 686 mmHg 83%
    09:00 +6°C° 0.3 mm 1 mps 686 mmHg 81%
    10:00 +7°C° 0.1 mm 1 mps 686 mmHg 78%
    11:00 +8°C° 0.1 mm 1 mps 686 mmHg 75%
    12:00 +7°C° 0.1 mm 2 mps 686 mmHg 72%
    13:00 +7°C° 0.1 mm 2 mps 686 mmHg 72%
    14:00 +7°C° 0.1 mm 2 mps 686 mmHg 73%
    15:00 +7°C° 0.1 mm 2 mps 686 mmHg 73%
    16:00 +6°C° 0 mm 2 mps 686 mmHg 77%
    17:00 +7°C° 0 mm 1 mps 687 mmHg 80%
    18:00 +6°C° 0 mm 1 mps 687 mmHg 83%
    19:00 +5°C° 0 mm 1 mps 687 mmHg 83%
    20:00 +5°C° 0 mm 1 mps 687 mmHg 83%
    21:00 +5°C° 0 mm 1 mps 688 mmHg 82%
    22:00 +5°C° 0 mm 1 mps 688 mmHg 82%
    23:00 +5°C° 0 mm 1 mps 688 mmHg 82%

    Day after tomorrow, 19 December, Wednesday

    Time Temperature Precipitation Wind Pressure Humidity
    00:00 +5°C° 0 mm 1 mps 688 mmHg 82%
    01:00 +5°C° 0 mm 1 mps 688 mmHg 82%
    02:00 +5°C° 0 mm 1 mps 688 mmHg 82%
    03:00 +4°C° 0 mm 1 mps 688 mmHg 82%
    04:00 +4°C° 0 mm 1 mps 688 mmHg 82%
    05:00 +4°C° 0 mm 1 mps 688 mmHg 83%
    06:00 +4°C° 0 mm 1 mps 688 mmHg 83%
    07:00 +5°C° 0 mm 1 mps 689 mmHg 81%
    08:00 +6°C° 0 mm 1 mps 689 mmHg 78%
    09:00 +7°C° 0 mm 1 mps 690 mmHg 75%
    10:00 +7°C° 0 mm 1 mps 689 mmHg 73%
    11:00 +8°C° 0 mm 1 mps 689 mmHg 71%
    12:00 +8°C° 0 mm 2 mps 689 mmHg 68%
    13:00 +8°C° 0 mm 2 mps 688 mmHg 69%
    14:00 +8°C° 0 mm 2 mps 688 mmHg 70%
    15:00 +8°C° 0 mm 2 mps 688 mmHg 70%
    16:00 +8°C° 0 mm 1 mps 687 mmHg 74%
    17:00 +7°C° 0 mm 1 mps 687 mmHg 78%
    18:00 +6°C° 0 mm 1 mps 687 mmHg 82%
    19:00 +5°C° 0 mm 1 mps 687 mmHg 82%
    20:00 +5°C° 0 mm 1 mps 687 mmHg 82%
    21:00 +5°C° 0 mm 1 mps 687 mmHg 82%
    22:00 +5°C° 0 mm 1 mps 687 mmHg 82%
    23:00 +5°C° 0 mm 1 mps 687 mmHg 82%

    20 December, Thursday

    Time Temperature Precipitation Wind Pressure Humidity
    00:00 +5°C° 0 mm 1 mps 687 mmHg 82%
    01:00 +4°C° 0 mm 1 mps 686 mmHg 82%
    02:00 +4°C° 0 mm 1 mps 686 mmHg 82%
    03:00 +4°C° 0 mm 1 mps 686 mmHg 83%
    04:00 +4°C° 0 mm 1 mps 686 mmHg 82%
    05:00 +4°C° 0 mm 1 mps 686 mmHg 82%
    06:00 +3°C° 0 mm 0 mps 686 mmHg 82%
    07:00 +5°C° 0 mm 1 mps 686 mmHg 80%
    08:00 +6°C° 0 mm 1 mps 686 mmHg 77%
    09:00 +7°C° 0 mm 1 mps 686 mmHg 75%
    10:00 +7°C° 0 mm 1 mps 686 mmHg 72%
    11:00 +8°C° 0 mm 1 mps 685 mmHg 70%
    12:00 +9°C° 0 mm 1 mps 685 mmHg 67%
    13:00 +9°C° 0.1 mm 1 mps 685 mmHg 68%
    14:00 +8°C° 0.1 mm 1 mps 684 mmHg 69%
    15:00 +8°C° 0.1 mm 1 mps 684 mmHg 70%
    16:00 +7°C° 0.1 mm 1 mps 684 mmHg 75%
    17:00 +7°C° 0.1 mm 1 mps 684 mmHg 79%
    18:00 +6°C° 0.1 mm 1 mps 684 mmHg 83%
    19:00 +6°C° 0 mm 1 mps 685 mmHg 83%
    20:00 +4°C° 0 mm 0 mps 685 mmHg 83%
    21:00 +4°C° 0 mm 0 mps 685 mmHg 82%
    22:00 +4°C° 0 mm 0 mps 685 mmHg 82%
    23:00 +4°C° 0 mm 0 mps 685 mmHg 81%

    21 December, Friday

    Time Temperature Precipitation Wind Pressure Humidity
    00:00 +5°C° 0 mm 1 mps 685 mmHg 81%
    01:00 +5°C° 0 mm 1 mps 685 mmHg 80%
    02:00 +4°C° 0 mm 1 mps 685 mmHg 80%
    03:00 +4°C° 0 mm 1 mps 685 mmHg 80%
    04:00 +3°C° 0.1 mm 0 mps 685 mmHg 80%
    05:00 +3°C° 0.1 mm 0 mps 686 mmHg 80%
    06:00 +3°C° 0.1 mm 0 mps 686 mmHg 80%
    07:00 +4°C° 0.1 mm 0 mps 686 mmHg 78%
    08:00 +5°C° 0.1 mm 0 mps 686 mmHg 75%
    09:00 +5°C° 0.1 mm 0 mps 687 mmHg 72%
    10:00 +7°C° 0.1 mm 1 mps 687 mmHg 70%
    11:00 +7°C° 0.1 mm 1 mps 687 mmHg 67%
    12:00 +8°C° 0.1 mm 1 mps 686 mmHg 65%
    13:00 +8°C° 0.1 mm 1 mps 686 mmHg 66%
    14:00 +8°C° 0.1 mm 1 mps 686 mmHg 66%
    15:00 +8°C° 0.1 mm 1 mps 686 mmHg 66%
    16:00 +7°C° 0 mm 1 mps 686 mmHg 71%
    17:00 +6°C° 0 mm 1 mps 686 mmHg 75%
    18:00 +4°C° 0 mm 0 mps 686 mmHg 79%
    19:00 +4°C° 0 mm 0 mps 686 mmHg 79%
    20:00 +4°C° 0 mm 0 mps 686 mmHg 79%
    21:00 +3°C° 0 mm 0 mps 687 mmHg 79%
    22:00 +3°C° 0 mm 0 mps 687 mmHg 79%
    23:00 +3°C° 0 mm 0 mps 686 mmHg 79%

    22 December, Saturday

    Time Temperature Precipitation Wind Pressure Humidity
    00:00 +4°C° 0 mm 1 mps 686 mmHg 78%
    01:00 +4°C° 0 mm 1 mps 686 mmHg 77%
    02:00 +3°C° 0 mm 1 mps 686 mmHg 76%
    03:00 +3°C° 0 mm 1 mps 686 mmHg 76%
    04:00 +3°C° 0 mm 1 mps 686 mmHg 75%
    05:00 +3°C° 0 mm 1 mps 686 mmHg 74%
    06:00 +3°C° 0 mm 1 mps 686 mmHg 73%
    07:00 +4°C° 0 mm 1 mps 686 mmHg 69%
    08:00 +4°C° 0 mm 0 mps 686 mmHg 65%
    09:00 +5°C° 0 mm 0 mps 687 mmHg 62%
    10:00 +6°C° 0 mm 1 mps 686 mmHg 60%
    11:00 +7°C° 0 mm 1 mps 686 mmHg 58%
    12:00 +8°C° 0 mm 1 mps 685 mmHg 57%
    13:00 +7°C° 0 mm 1 mps 685 mmHg 59%
    14:00 +6°C° 0 mm 2 mps 684 mmHg 62%
    15:00 +6°C° 0 mm 2 mps 684 mmHg 64%
    16:00 +6°C° 0 mm 1 mps 684 mmHg 70%
    17:00 +5°C° 0 mm 1 mps 684 mmHg 75%
    18:00 +5°C° 0 mm 1 mps 684 mmHg 81%
    19:00 +5°C° 0.2 mm 1 mps 684 mmHg 82%
    20:00 +4°C° 0.2 mm 1 mps 684 mmHg 83%
    21:00 +4°C° 0.2 mm 1 mps 684 mmHg 85%
    22:00 +4°C° 0.4 mm 1 mps 684 mmHg 85%
    23:00 +4°C° 0.4 mm 1 mps 683 mmHg 85%
    Show more